KB9TWL Weather Reports


Display with metric or nautical units.
time (UTC)temp
F
wind
direction
speed
MPH
gust
MPH
rain 1hr
in
rain 24hr
in
rain mn
in
humidity
%
barometer
mb
20260503213003 68 251 3.0 10.0 0.00 0.00 0.00 42 1006.1
20260503211508 67 176 4.0 11.0 0.00 0.00 0.00 43 1006.2
20260503210012 67 237 4.0 9.0 0.00 0.00 0.00 43 1006.5
20260503204517 66 202 4.0 10.0 0.00 0.00 0.00 44 1006.8
20260503203009 66 200 7.0 16.0 0.00 0.00 0.00 41 1007.0
20260503201553 65 267 4.0 13.0 0.00 0.00 0.00 44 1007.3
20260503200101 65 195 5.0 15.0 0.00 0.00 0.00 43 1007.4
20260503194602 65 234 5.0 16.0 0.00 0.00 0.00 43 1007.9
20260503193102 65 238 3.0 23.0 0.00 0.00 0.00 43 1008.0
20260503191606 64 197 4.0 22.0 0.00 0.00 0.00 45 1008.1
20260503184631 63 208 9.0 19.0 0.00 0.00 0.00 46 1008.5
20260503184504 63 204 8.0 19.0 0.00 0.00 0.00 45 1008.5
20260503183007 62 204 5.0 15.0 0.00 0.00 0.00 47 1008.5
20260503181512 62 194 5.0 15.0 0.00 0.00 0.00 46 1008.8
20260503180011 63 155 7.0 19.0 0.00 0.00 0.00 47 1008.9
20260503174544 62 185 5.0 16.0 0.00 0.00 0.00 47 1009.1
20260503173036 61 244 4.0 16.0 0.00 0.00 0.00 47 1009.3
20260503171535 60 200 6.0 14.0 0.00 0.00 0.00 49 1009.5
20260502233056 58 247 6.0 10.0 0.00 0.00 0.00 33 1016.8
20260502231519 57 257 4.0 15.0 0.00 0.00 0.00 33 1017.1
20260502230046 58 259 2.0 12.0 0.00 0.00 0.00 33 1017.2
20260502224521 57 258 5.0 10.0 0.00 0.00 0.00 33 1017.3
20260502223100 57 246 1.0 9.0 0.00 0.00 0.00 34 1017.3
20260502221517 57 261 4.0 15.0 0.00 0.00 0.00 33 1017.4
20260502220043 57 260 5.0 16.0 0.00 0.00 0.00 33 1017.5
20260502214504 56 265 3.0 13.0 0.00 0.00 0.00 33 1017.7